| time (UTC) | temp F | wind direction | speed MPH | gust MPH | rain 1hr in | rain 24hr in | rain mn in | humidity % | barometer mb |
| 20260903111103 | 66 | 196 | 5.0 | 10.0 | 0.02 | 0.35 | 0.35 | 96 | 1014.6 |
| 20260903105103 | 65 | 175 | 4.0 | 10.0 | 0.01 | 0.32 | 0.32 | 96 | 1014.4 |
| 20260903104103 | 65 | 168 | 6.0 | 10.0 | 0.01 | 0.32 | 0.32 | 96 | 1014.3 |
| 20260903103104 | 64 | 158 | 7.0 | 11.0 | 0.01 | 0.32 | 0.32 | 96 | 1014.2 |
| 20260903102104 | 64 | 163 | 6.0 | 9.0 | 0.01 | 0.32 | 0.32 | 96 | 1014.1 |
| 20260903101103 | 64 | 165 | 5.0 | 9.0 | 0.01 | 0.32 | 0.32 | 96 | 1014.2 |
| 20260903100104 | 63 | 152 | 5.0 | 7.0 | 0.00 | 0.31 | 0.31 | 96 | 1014.3 |
| 20260903095125 | 63 | 145 | 2.0 | 7.0 | 0.25 | 0.30 | 0.30 | 96 | 1014.5 |
| 20260903094103 | 63 | 141 | 4.0 | 7.0 | 0.25 | 0.30 | 0.30 | 96 | 1014.6 |
| 20260903093103 | 63 | 190 | 2.0 | 6.0 | 0.19 | 0.24 | 0.24 | 96 | 1014.7 |
| 20260903092104 | 63 | 132 | 1.0 | 2.0 | 0.02 | 0.07 | 0.07 | 95 | 1014.5 |
| 20260903091103 | 62 | 132 | 0.0 | 1.0 | 0.00 | 0.05 | 0.05 | 95 | 1014.6 |
| 20260903090104 | 62 | 129 | 0.0 | 2.0 | 0.00 | 0.05 | 0.05 | 95 | 1014.8 |
| 20260903085124 | 62 | 134 | 1.0 | 3.0 | 0.04 | 0.04 | 0.04 | 95 | 1014.6 |
| 20260903084104 | 62 | 153 | 0.0 | 4.0 | 0.03 | 0.03 | 0.03 | 95 | 1014.9 |
| 20260903083103 | 62 | 149 | 0.0 | 4.0 | 0.01 | 0.02 | 0.01 | 94 | 1015.1 |
| 20260903082104 | 62 | 157 | 2.0 | 5.0 | 0.00 | 0.01 | 0.00 | 94 | 1015.1 |
| 20260903081124 | 62 | 142 | 2.0 | 4.0 | 0.00 | 0.01 | 0.00 | 94 | 1015.2 |
| 20260903080104 | 62 | 157 | 1.0 | 4.0 | 0.00 | 0.01 | 0.00 | 94 | 1015.4 |
| 20260903075103 | 62 | 134 | 1.0 | 3.0 | 0.00 | 0.01 | 0.00 | 93 | 1015.4 |
| 20260903074103 | 62 | 135 | 2.0 | 4.0 | 0.00 | 0.01 | 0.00 | 93 | 1015.6 |
| 20260903073103 | 62 | 135 | 1.0 | 5.0 | 0.00 | 0.01 | 0.00 | 93 | 1015.7 |
| 20260903072103 | 62 | 158 | 2.0 | 4.0 | 0.00 | 0.01 | 0.00 | 93 | 1016.0 |
| 20260903071104 | 62 | 163 | 1.0 | 2.0 | 0.00 | 0.01 | 0.00 | 93 | 1016.1 |
| 20260903070103 | 62 | 178 | 0.0 | 3.0 | 0.00 | 0.01 | 0.00 | 92 | 1016.3 |
| 20260903065103 | 61 | 119 | 1.0 | 3.0 | 0.00 | 0.01 | 0.00 | 92 | 1016.4 |
| 20260903064104 | 61 | 173 | 1.0 | 3.0 | 0.00 | 0.01 | 0.00 | 94 | 1016.7 |
| 20260903063104 | 61 | 93 | 0.0 | 1.0 | 0.00 | 0.01 | 0.00 | 93 | 1016.7 |
| 20260903062103 | 61 | 93 | 1.0 | 3.0 | 0.00 | 0.01 | 0.00 | 94 | 1016.8 |
| 20260903061125 | 61 | 119 | 0.0 | 2.0 | 0.00 | 0.01 | 0.00 | 94 | 1016.9 |
| 20260903060103 | 61 | 127 | 0.0 | 1.0 | 0.00 | 0.01 | 0.00 | 94 | 1017.1 |
| 20260903055104 | 61 | 271 | 0.0 | 0.0 | 0.00 | 0.01 | 0.00 | 94 | 1017.3 |
| 20260903054103 | 61 | 270 | 0.0 | 2.0 | 0.00 | 0.01 | 0.00 | 94 | 1017.5 |
| 20260903053104 | 60 | 271 | 0.0 | 1.0 | 0.00 | 0.01 | 0.00 | 94 | 1017.6 |
| 20260903052103 | 60 | 270 | 0.0 | 1.0 | 0.00 | 0.01 | 0.00 | 95 | 1017.7 |
| 20260903051104 | 60 | 271 | 0.0 | 2.0 | 0.00 | 0.01 | 0.00 | 94 | 1017.8 |
| 20260903045104 | 60 | 270 | 1.0 | 2.0 | 0.00 | 0.01 | 0.00 | 94 | 1018.2 |
| 20260903044103 | 60 | 170 | 0.0 | 0.0 | 0.00 | 0.01 | 0.00 | 94 | 1018.1 |
| 20260903043103 | 60 | 170 | 0.0 | 1.0 | 0.00 | 0.01 | 0.00 | 95 | 1017.9 |
| 20260903042103 | 60 | 170 | 1.0 | 3.0 | 0.00 | 0.01 | 0.00 | 95 | 1017.8 |
| 20260903041104 | 59 | 166 | 2.0 | 6.0 | 0.00 | 0.01 | 0.00 | 95 | 1017.8 |
| 20260903040103 | 59 | 116 | 2.0 | 3.0 | 0.00 | 0.01 | 0.01 | 95 | 1017.8 |
| 20260903035104 | 59 | 40 | 0.0 | 0.0 | 0.00 | 0.01 | 0.01 | 94 | 1018.0 |
| 20260903034103 | 59 | 40 | 0.0 | 0.0 | 0.00 | 0.01 | 0.01 | 94 | 1018.3 |
| 20260903033103 | 59 | 40 | 0.0 | 0.0 | 0.00 | 0.01 | 0.01 | 93 | 1018.4 |
| 20260903032104 | 59 | 40 | 0.0 | 0.0 | 0.00 | 0.01 | 0.01 | 94 | 1018.5 |
| 20260903031124 | 59 | 40 | 0.0 | 0.0 | 0.00 | 0.01 | 0.01 | 94 | 1018.5 |
| 20260903030104 | 59 | 86 | 0.0 | 0.0 | 0.00 | 0.01 | 0.01 | 94 | 1018.6 |
| 20260903025103 | 59 | 86 | 0.0 | 1.0 | 0.00 | 0.01 | 0.01 | 94 | 1018.7 |
| 20260903024104 | 59 | 5 | 0.0 | 1.0 | 0.00 | 0.01 | 0.01 | 93 | 1018.8 |
| 20260903023103 | 59 | 5 | 1.0 | 3.0 | 0.00 | 0.01 | 0.01 | 93 | 1018.9 |
| 20260903022104 | 59 | 5 | 2.0 | 3.0 | 0.00 | 0.01 | 0.01 | 93 | 1018.8 |
| 20260903021125 | 60 | 148 | 0.0 | 3.0 | 0.00 | 0.01 | 0.01 | 93 | 1018.6 |
| 20260903015104 | 60 | 187 | 2.0 | 6.0 | 0.00 | 0.01 | 0.01 | 92 | 1018.8 |
| 20260903014125 | 60 | 167 | 2.0 | 4.0 | 0.00 | 0.01 | 0.01 | 91 | 1018.9 |
| 20260903013124 | 61 | 152 | 0.0 | 1.0 | 0.00 | 0.01 | 0.01 | 92 | 1019.0 |
| 20260903012103 | 61 | 155 | 2.0 | 5.0 | 0.00 | 0.01 | 0.01 | 90 | 1019.0 |
| 20260903011103 | 61 | 141 | 0.0 | 2.0 | 0.00 | 0.01 | 0.01 | 90 | 1019.2 |
| 20260903010104 | 62 | 141 | 1.0 | 2.0 | 0.00 | 0.01 | 0.01 | 91 | 1019.1 |
| 20260903005103 | 62 | 141 | 0.0 | 1.0 | 0.00 | 0.01 | 0.01 | 89 | 1019.1 |
| 20260903004104 | 62 | 143 | 1.0 | 4.0 | 0.00 | 0.01 | 0.01 | 89 | 1019.0 |
| 20260903003103 | 62 | 144 | 1.0 | 3.0 | 0.00 | 0.01 | 0.01 | 89 | 1019.0 |
| 20260903002103 | 62 | 137 | 2.0 | 4.0 | 0.00 | 0.01 | 0.01 | 89 | 1019.2 |
| 20260903001104 | 62 | 137 | 1.0 | 3.0 | 0.00 | 0.01 | 0.01 | 88 | 1019.4 |
| 20260903000124 | 63 | 203 | 0.0 | 0.0 | 0.00 | 0.01 | 0.01 | 88 | 1019.8 |
| 20260902235104 | 64 | 258 | 0.0 | 2.0 | 0.00 | 0.01 | 0.01 | 87 | 1019.9 |
| 20260902234124 | 64 | 209 | 0.0 | 0.0 | 0.00 | 0.01 | 0.01 | 86 | 1019.8 |
| 20260902233103 | 65 | 208 | 0.0 | 3.0 | 0.00 | 0.01 | 0.01 | 83 | 1019.8 |
| 20260902232103 | 66 | 160 | 1.0 | 2.0 | 0.00 | 0.01 | 0.01 | 81 | 1019.7 |
| 20260902231104 | 67 | 200 | 1.0 | 2.0 | 0.00 | 0.01 | 0.01 | 80 | 1019.8 |
| 20260902230104 | 67 | 201 | 0.0 | 2.0 | 0.00 | 0.01 | 0.01 | 78 | 1019.8 |
| 20260902225103 | 68 | 216 | 0.0 | 4.0 | 0.00 | 0.01 | 0.01 | 74 | 1020.0 |
| 20260902224104 | 68 | 140 | 2.0 | 7.0 | 0.00 | 0.01 | 0.01 | 73 | 1019.8 |
| 20260902223103 | 69 | 160 | 3.0 | 8.0 | 0.00 | 0.01 | 0.01 | 72 | 1019.8 |
| 20260902222124 | 69 | 150 | 4.0 | 9.0 | 0.00 | 0.01 | 0.01 | 72 | 1019.6 |
| 20260902221104 | 70 | 165 | 5.0 | 12.0 | 0.00 | 0.01 | 0.01 | 69 | 1019.7 |
| 20260902215104 | 71 | 156 | 7.0 | 12.0 | 0.00 | 0.01 | 0.01 | 68 | 1019.5 |
| 20260902214103 | 71 | 160 | 9.0 | 13.0 | 0.00 | 0.01 | 0.01 | 68 | 1019.3 |
| 20260902213124 | 71 | 163 | 6.0 | 9.0 | 0.00 | 0.01 | 0.01 | 70 | 1019.3 |
| 20260902212104 | 71 | 165 | 7.0 | 11.0 | 0.00 | 0.01 | 0.01 | 70 | 1019.1 |
| 20260902211103 | 72 | 153 | 4.0 | 7.0 | 0.00 | 0.01 | 0.01 | 71 | 1019.6 |
| 20260902210103 | 72 | 153 | 2.0 | 8.0 | 0.00 | 0.01 | 0.01 | 69 | 1019.8 |
| 20260902205124 | 72 | 161 | 4.0 | 9.0 | 0.00 | 0.01 | 0.01 | 69 | 1019.7 |
| 20260902204104 | 73 | 151 | 3.0 | 9.0 | 0.00 | 0.01 | 0.01 | 70 | 1019.6 |
| 20260902203103 | 73 | 161 | 7.0 | 12.0 | 0.00 | 0.02 | 0.01 | 67 | 1019.6 |
| 20260902202104 | 74 | 168 | 8.0 | 13.0 | 0.00 | 0.02 | 0.01 | 64 | 1019.6 |
| 20260902201103 | 74 | 158 | 9.0 | 13.0 | 0.00 | 0.02 | 0.01 | 67 | 1019.4 |
| 20260902200124 | 74 | 155 | 7.0 | 11.0 | 0.00 | 0.02 | 0.01 | 67 | 1019.5 |
| 20260902195103 | 75 | 167 | 7.0 | 11.0 | 0.00 | 0.03 | 0.01 | 65 | 1019.7 |
| 20260902194103 | 75 | 179 | 7.0 | 10.0 | 0.00 | 0.04 | 0.01 | 65 | 1019.8 |
| 20260902193104 | 75 | 132 | 4.0 | 10.0 | 0.00 | 0.05 | 0.01 | 65 | 1019.9 |
| 20260902192103 | 75 | 127 | 4.0 | 9.0 | 0.00 | 0.05 | 0.01 | 64 | 1020.0 |
| 20260902191103 | 75 | 139 | 4.0 | 8.0 | 0.00 | 0.05 | 0.01 | 65 | 1020.0 |
| 20260902185103 | 75 | 152 | 4.0 | 8.0 | 0.00 | 0.05 | 0.01 | 62 | 1020.0 |
| 20260902184104 | 75 | 106 | 4.0 | 11.0 | 0.00 | 0.05 | 0.01 | 62 | 1019.9 |
| 20260902183103 | 75 | 143 | 4.0 | 12.0 | 0.00 | 0.05 | 0.01 | 59 | 1019.8 |
| 20260902182103 | 75 | 113 | 5.0 | 11.0 | 0.00 | 0.05 | 0.01 | 60 | 1019.7 |
| 20260902181103 | 75 | 151 | 2.0 | 11.0 | 0.00 | 0.07 | 0.01 | 63 | 1019.8 |
| 20260902180104 | 75 | 94 | 5.0 | 15.0 | 0.00 | 0.11 | 0.01 | 59 | 1019.9 |
| 20260902175103 | 75 | 110 | 4.0 | 11.0 | 0.00 | 0.17 | 0.01 | 59 | 1020.1 |
| 20260902174104 | 75 | 94 | 5.0 | 12.0 | 0.00 | 0.21 | 0.01 | 59 | 1020.1 |
| 20260902173103 | 75 | 104 | 5.0 | 13.0 | 0.00 | 0.22 | 0.01 | 60 | 1020.1 |
| 20260902172103 | 75 | 23 | 5.0 | 13.0 | 0.00 | 0.22 | 0.01 | 64 | 1020.4 |
| 20260902171104 | 74 | 128 | 9.0 | 13.0 | 0.00 | 0.22 | 0.01 | 58 | 1020.4 |
| 20260902170103 | 74 | 142 | 6.0 | 11.0 | 0.00 | 0.22 | 0.01 | 62 | 1020.3 |
| 20260902165103 | 74 | 118 | 5.0 | 11.0 | 0.00 | 0.22 | 0.01 | 60 | 1020.4 |
| 20260902164103 | 74 | 148 | 7.0 | 12.0 | 0.00 | 0.22 | 0.01 | 61 | 1020.5 |
| 20260902163103 | 74 | 150 | 7.0 | 16.0 | 0.00 | 0.22 | 0.01 | 59 | 1020.6 |
| 20260902162103 | 74 | 150 | 9.0 | 17.0 | 0.00 | 0.22 | 0.01 | 62 | 1020.6 |
| 20260902161104 | 73 | 87 | 5.0 | 12.0 | 0.00 | 0.22 | 0.01 | 61 | 1020.7 |
| 20260902160103 | 73 | 138 | 6.0 | 12.0 | 0.00 | 0.22 | 0.01 | 62 | 1020.8 |
| 20260902155125 | 74 | 97 | 7.0 | 11.0 | 0.00 | 0.22 | 0.01 | 63 | 1021.0 |
| 20260902154125 | 74 | 91 | 3.0 | 12.0 | 0.00 | 0.22 | 0.01 | 65 | 1021.1 |
| 20260902153103 | 73 | 142 | 5.0 | 11.0 | 0.00 | 0.22 | 0.01 | 67 | 1021.1 |
| 20260902152125 | 73 | 105 | 5.0 | 12.0 | 0.00 | 0.22 | 0.01 | 71 | 1021.0 |
| 20260902151103 | 72 | 137 | 5.0 | 13.0 | 0.00 | 0.22 | 0.01 | 72 | 1021.0 |
| 20260902150104 | 72 | 129 | 6.0 | 14.0 | 0.00 | 0.22 | 0.01 | 70 | 1021.2 |
| 20260902145103 | 72 | 104 | 4.0 | 11.0 | 0.00 | 0.22 | 0.01 | 74 | 1021.2 |
| 20260902144125 | 71 | 118 | 5.0 | 9.0 | 0.00 | 0.24 | 0.01 | 75 | 1021.1 |
| 20260902143104 | 71 | 116 | 4.0 | 11.0 | 0.00 | 0.25 | 0.01 | 74 | 1021.0 |
| 20260902142124 | 70 | 131 | 4.0 | 9.0 | 0.00 | 0.26 | 0.01 | 79 | 1020.8 |
| 20260902141103 | 69 | 106 | 5.0 | 9.0 | 0.00 | 0.26 | 0.01 | 84 | 1020.6 |
| 20260902140124 | 68 | 103 | 3.0 | 10.0 | 0.00 | 0.27 | 0.01 | 84 | 1020.6 |
| 20260902135103 | 68 | 78 | 8.0 | 12.0 | 0.00 | 0.27 | 0.01 | 82 | 1020.5 |
| 20260902134103 | 68 | 108 | 4.0 | 12.0 | 0.00 | 0.27 | 0.01 | 86 | 1020.1 |
| 20260902133104 | 68 | 115 | 6.0 | 11.0 | 0.00 | 0.28 | 0.01 | 87 | 1020.1 |
| 20260902132103 | 67 | 122 | 2.0 | 8.0 | 0.00 | 0.28 | 0.01 | 92 | 1020.2 |
| 20260902131104 | 65 | 103 | 2.0 | 7.0 | 0.00 | 0.29 | 0.01 | 94 | 1020.3 |
| 20260902130124 | 65 | 109 | 1.0 | 5.0 | 0.00 | 0.29 | 0.01 | 95 | 1020.5 |
| 20260902125104 | 64 | 79 | 1.0 | 6.0 | 0.00 | 0.29 | 0.01 | 96 | 1020.6 |
| 20260902124103 | 64 | 77 | 2.0 | 4.0 | 0.00 | 0.30 | 0.01 | 97 | 1020.6 |
| 20260902123103 | 63 | 86 | 2.0 | 4.0 | 0.00 | 0.30 | 0.01 | 98 | 1020.5 |
| 20260902122103 | 63 | 90 | 1.0 | 4.0 | 0.00 | 0.30 | 0.01 | 98 | 1020.7 |
| 20260902121103 | 63 | 30 | 2.0 | 6.0 | 0.00 | 0.30 | 0.01 | 98 | 1020.8 |
| 20260902115104 | 60 | 30 | 1.0 | 5.0 | 0.00 | 0.30 | 0.01 | 98 | 1020.9 |
| 20260902114103 | 58 | 26 | 2.0 | 3.0 | 0.00 | 0.30 | 0.01 | 97 | 1020.9 |
| 20260902113125 | 58 | 23 | 1.0 | 3.0 | 0.00 | 0.30 | 0.01 | 97 | 1020.7 |
| 20260902112103 | 58 | 3 | 2.0 | 3.0 | 0.00 | 0.30 | 0.01 | 97 | 1020.8 |